Year,Month,Day,Hour,Minute,Value (Times are PST for temperature in C)
2018,08,25,00,00,14.10
2018,08,25,00,01,14.10
2018,08,25,00,02,14.10
2018,08,25,00,03,14.10
2018,08,25,00,04,14.10
2018,08,25,00,05,14.10
2018,08,25,00,06,14.10
2018,08,25,00,07,14.10
2018,08,25,00,08,14.10
2018,08,25,00,09,14.10
2018,08,25,00,10,14.10
2018,08,25,00,11,14.10
2018,08,25,00,12,14.10
2018,08,25,00,13,14.10
2018,08,25,00,14,14.10
2018,08,25,00,15,14.10
2018,08,25,00,16,14.10
2018,08,25,00,17,14.10
2018,08,25,00,18,14.10
2018,08,25,00,19,14.10
2018,08,25,00,20,14.10
2018,08,25,00,21,14.10
2018,08,25,00,22,14.10
2018,08,25,00,23,14.10
2018,08,25,00,24,14.10
2018,08,25,00,25,14.10
2018,08,25,00,26,14.10
2018,08,25,00,27,14.10
2018,08,25,00,28,14.10
2018,08,25,00,29,14.10
2018,08,25,00,30,14.10
2018,08,25,00,31,14.10
2018,08,25,00,32,14.10
2018,08,25,00,33,14.10
2018,08,25,00,34,14.10
2018,08,25,00,35,14.00
2018,08,25,00,36,14.10
2018,08,25,00,37,14.00
2018,08,25,00,38,14.00
2018,08,25,00,39,14.00
2018,08,25,00,40,14.00
2018,08,25,00,41,14.00
2018,08,25,00,42,14.00
2018,08,25,00,43,14.00
2018,08,25,00,44,14.00
2018,08,25,00,45,14.00
2018,08,25,00,46,14.00
2018,08,25,00,47,14.00
2018,08,25,00,48,13.90
2018,08,25,00,49,13.90
2018,08,25,00,50,13.90
2018,08,25,00,51,13.90
2018,08,25,00,52,13.90
2018,08,25,00,53,13.90
2018,08,25,00,54,13.90
2018,08,25,00,55,13.90
2018,08,25,00,56,13.80
2018,08,25,00,57,13.80
2018,08,25,00,58,13.80
2018,08,25,00,59,13.80
2018,08,25,01,00,13.80
2018,08,25,01,01,13.80
2018,08,25,01,02,13.80
2018,08,25,01,03,13.80
2018,08,25,01,04,13.80
2018,08,25,01,05,13.80
2018,08,25,01,06,13.80
2018,08,25,01,07,13.80
2018,08,25,01,08,13.80
2018,08,25,01,09,13.80
2018,08,25,01,10,13.80
2018,08,25,01,11,13.70
2018,08,25,01,12,13.70
2018,08,25,01,13,13.70
2018,08,25,01,14,13.70
2018,08,25,01,15,13.70
2018,08,25,01,16,13.70
2018,08,25,01,17,13.70
2018,08,25,01,18,13.60
2018,08,25,01,19,13.60
2018,08,25,01,20,13.60
2018,08,25,01,21,13.60
2018,08,25,01,22,13.60
2018,08,25,01,23,13.50
2018,08,25,01,24,13.50
2018,08,25,01,25,13.50
2018,08,25,01,26,13.40
2018,08,25,01,27,13.40
2018,08,25,01,28,13.40
2018,08,25,01,29,13.40
2018,08,25,01,30,13.40
2018,08,25,01,31,13.30
2018,08,25,01,32,13.30
2018,08,25,01,33,13.30
2018,08,25,01,34,13.30
2018,08,25,01,35,13.30
2018,08,25,01,36,13.30
2018,08,25,01,37,13.30
2018,08,25,01,38,13.30
2018,08,25,01,39,13.30
2018,08,25,01,40,13.20
2018,08,25,01,41,13.20
2018,08,25,01,42,13.20
2018,08,25,01,43,13.20
2018,08,25,01,44,13.20
2018,08,25,01,45,13.20
2018,08,25,01,46,13.20
2018,08,25,01,47,13.10
2018,08,25,01,48,13.10
2018,08,25,01,49,13.10
2018,08,25,01,50,13.10
2018,08,25,01,51,13.10
2018,08,25,01,52,13.10
2018,08,25,01,53,13.10
2018,08,25,01,54,13.10
2018,08,25,01,55,13.10
2018,08,25,01,56,13.10
2018,08,25,01,57,13.10
2018,08,25,01,58,13.10
2018,08,25,01,59,13.10
2018,08,25,02,00,13.00
2018,08,25,02,01,13.00
2018,08,25,02,02,13.00
2018,08,25,02,03,13.00
2018,08,25,02,04,13.00
2018,08,25,02,05,12.90
2018,08,25,02,06,12.90
2018,08,25,02,07,12.90
2018,08,25,02,08,12.90
2018,08,25,02,09,12.90
2018,08,25,02,10,12.90
2018,08,25,02,11,12.90
2018,08,25,02,12,12.90
2018,08,25,02,13,12.90
2018,08,25,02,14,12.90
2018,08,25,02,15,12.90
2018,08,25,02,16,12.90
2018,08,25,02,17,12.90
2018,08,25,02,18,12.90
2018,08,25,02,19,12.90
2018,08,25,02,20,12.90
2018,08,25,02,21,12.90
2018,08,25,02,22,12.90
2018,08,25,02,23,12.90
2018,08,25,02,24,12.90
2018,08,25,02,25,12.90
2018,08,25,02,26,12.90
2018,08,25,02,27,12.90
2018,08,25,02,28,12.90
2018,08,25,02,29,12.90
2018,08,25,02,30,12.90
2018,08,25,02,31,12.90
2018,08,25,02,32,13.00
2018,08,25,02,33,13.00
2018,08,25,02,34,13.00
2018,08,25,02,35,13.00
2018,08,25,02,36,13.00
2018,08,25,02,37,12.90
2018,08,25,02,38,12.90
2018,08,25,02,39,12.90
2018,08,25,02,40,12.90
2018,08,25,02,41,12.90
2018,08,25,02,42,12.90
2018,08,25,02,43,12.90
2018,08,25,02,44,12.90
2018,08,25,02,45,12.90
2018,08,25,02,46,12.90
2018,08,25,02,47,12.90
2018,08,25,02,48,12.90
2018,08,25,02,49,12.90
2018,08,25,02,50,12.90
2018,08,25,02,51,12.90
2018,08,25,02,52,12.90
2018,08,25,02,53,12.90
2018,08,25,02,54,12.80
2018,08,25,02,55,12.80
2018,08,25,02,56,12.80
2018,08,25,02,57,12.80
2018,08,25,02,58,12.80
2018,08,25,02,59,12.80
2018,08,25,03,00,12.80
2018,08,25,03,01,12.80
2018,08,25,03,02,12.80
2018,08,25,03,03,12.80
2018,08,25,03,04,12.80
2018,08,25,03,05,12.80
2018,08,25,03,06,12.80
2018,08,25,03,07,12.80
2018,08,25,03,08,12.70
2018,08,25,03,09,12.80
2018,08,25,03,10,12.70
2018,08,25,03,11,12.70
2018,08,25,03,12,12.70
2018,08,25,03,13,12.70
2018,08,25,03,14,12.70
2018,08,25,03,15,12.70
2018,08,25,03,16,12.70
2018,08,25,03,17,12.70
2018,08,25,03,18,12.70
2018,08,25,03,19,12.70
2018,08,25,03,20,12.70
2018,08,25,03,21,12.70
2018,08,25,03,22,12.70
2018,08,25,03,23,12.70
2018,08,25,03,24,12.70
2018,08,25,03,25,12.70
2018,08,25,03,26,12.70
2018,08,25,03,27,12.70
2018,08,25,03,28,12.70
2018,08,25,03,29,12.70
2018,08,25,03,30,12.80
2018,08,25,03,31,12.70
2018,08,25,03,32,12.80
2018,08,25,03,33,12.80
2018,08,25,03,34,12.80
2018,08,25,03,35,12.80
2018,08,25,03,36,12.80
2018,08,25,03,37,12.80
2018,08,25,03,38,12.80
2018,08,25,03,39,12.80
2018,08,25,03,40,12.80
2018,08,25,03,41,12.80
2018,08,25,03,42,12.80
2018,08,25,03,43,12.80
2018,08,25,03,44,12.80
2018,08,25,03,45,12.80
2018,08,25,03,46,12.80
2018,08,25,03,47,12.80
2018,08,25,03,48,12.80
2018,08,25,03,49,12.80
2018,08,25,03,50,12.80
2018,08,25,03,51,12.80
2018,08,25,03,52,12.80
2018,08,25,03,53,12.80
2018,08,25,03,54,12.80
2018,08,25,03,55,12.80
2018,08,25,03,56,12.80
2018,08,25,03,57,12.80
2018,08,25,03,58,12.80
2018,08,25,03,59,12.80
2018,08,25,04,00,12.80
2018,08,25,04,01,12.80
2018,08,25,04,02,12.80
2018,08,25,04,03,12.80
2018,08,25,04,04,12.80
2018,08,25,04,05,12.80
2018,08,25,04,06,12.70
2018,08,25,04,07,12.70
2018,08,25,04,08,12.70
2018,08,25,04,09,12.70
2018,08,25,04,10,12.80
2018,08,25,04,11,12.80
2018,08,25,04,12,12.80
2018,08,25,04,13,12.80
2018,08,25,04,14,12.80
2018,08,25,04,15,12.80
2018,08,25,04,16,12.80
2018,08,25,04,17,12.80
2018,08,25,04,18,12.80
2018,08,25,04,19,12.80
2018,08,25,04,20,12.80
2018,08,25,04,21,12.80
2018,08,25,04,22,12.80
2018,08,25,04,23,12.80
2018,08,25,04,24,12.90
2018,08,25,04,25,12.90
2018,08,25,04,26,12.90
2018,08,25,04,27,12.90
2018,08,25,04,28,12.90
2018,08,25,04,29,12.90
2018,08,25,04,30,12.90
2018,08,25,04,31,12.90
2018,08,25,04,32,12.90
2018,08,25,04,33,12.90
2018,08,25,04,34,12.90
2018,08,25,04,35,12.90
2018,08,25,04,36,12.90
2018,08,25,04,37,12.90
2018,08,25,04,38,12.90
2018,08,25,04,39,12.90
2018,08,25,04,40,12.90
2018,08,25,04,41,12.90
2018,08,25,04,42,12.90
2018,08,25,04,43,12.90
2018,08,25,04,44,12.90
2018,08,25,04,45,12.90
2018,08,25,04,46,12.90
2018,08,25,04,47,12.90
2018,08,25,04,48,12.90
2018,08,25,04,49,12.90
2018,08,25,04,50,12.90
2018,08,25,04,51,12.90
2018,08,25,04,52,12.90
2018,08,25,04,53,12.90
2018,08,25,04,54,12.90
2018,08,25,04,55,12.80
2018,08,25,04,56,12.80
2018,08,25,04,57,12.80
2018,08,25,04,58,12.80
2018,08,25,04,59,12.80
2018,08,25,05,00,12.80
2018,08,25,05,01,12.90
2018,08,25,05,02,12.90
2018,08,25,05,03,12.90
2018,08,25,05,04,12.90
2018,08,25,05,05,12.90
2018,08,25,05,06,12.90
2018,08,25,05,07,12.90
2018,08,25,05,08,12.90
2018,08,25,05,09,12.90
2018,08,25,05,10,12.90
2018,08,25,05,11,12.90
2018,08,25,05,12,12.90
2018,08,25,05,13,12.90
2018,08,25,05,14,12.90
2018,08,25,05,15,12.90
2018,08,25,05,16,12.90
2018,08,25,05,17,12.90
2018,08,25,05,18,12.90
2018,08,25,05,19,12.90
2018,08,25,05,20,12.90
2018,08,25,05,21,12.90
2018,08,25,05,22,12.90
2018,08,25,05,23,12.90
2018,08,25,05,24,12.90
2018,08,25,05,25,12.90
2018,08,25,05,26,12.80
2018,08,25,05,27,12.80
2018,08,25,05,28,12.80
2018,08,25,05,29,12.80
2018,08,25,05,30,12.80
2018,08,25,05,31,12.80
2018,08,25,05,32,12.80
2018,08,25,05,33,12.80
2018,08,25,05,34,12.80
2018,08,25,05,35,12.80
2018,08,25,05,36,12.80
2018,08,25,05,37,12.80
2018,08,25,05,38,12.80
2018,08,25,05,39,12.80
2018,08,25,05,40,12.80
2018,08,25,05,41,12.80
2018,08,25,05,42,12.80
2018,08,25,05,43,12.80
2018,08,25,05,44,12.80
2018,08,25,05,45,12.80
2018,08,25,05,46,12.90
2018,08,25,05,47,12.90
2018,08,25,05,48,12.90
2018,08,25,05,49,12.90
2018,08,25,05,50,12.90
2018,08,25,05,51,12.90
2018,08,25,05,52,12.90
2018,08,25,05,53,12.90
2018,08,25,05,54,12.80
2018,08,25,05,55,12.80
2018,08,25,05,56,12.80
2018,08,25,05,57,12.80
2018,08,25,05,58,12.80
2018,08,25,05,59,12.80
2018,08,25,06,00,12.80
2018,08,25,06,01,12.80
2018,08,25,06,02,12.80
2018,08,25,06,03,12.80
2018,08,25,06,04,12.80
2018,08,25,06,05,12.80
2018,08,25,06,06,12.80
2018,08,25,06,07,12.80
2018,08,25,06,08,12.80
2018,08,25,06,09,12.80
2018,08,25,06,10,12.80
2018,08,25,06,11,12.80
2018,08,25,06,12,12.80
2018,08,25,06,13,12.80
2018,08,25,06,14,12.80
2018,08,25,13,52,16.40
2018,08,25,13,53,16.40
2018,08,25,13,54,16.40
2018,08,25,13,55,16.50
2018,08,25,13,56,16.50
2018,08,25,13,57,16.50
2018,08,25,13,58,16.50
2018,08,25,13,59,16.50
2018,08,25,14,00,16.50
2018,08,25,14,01,16.50
2018,08,25,14,02,16.60
2018,08,25,14,03,16.60
2018,08,25,14,04,16.60
2018,08,25,14,05,16.60
2018,08,25,14,06,16.60
2018,08,25,14,07,16.60
2018,08,25,14,08,16.60
2018,08,25,14,09,16.60
2018,08,25,14,10,16.60
2018,08,25,14,11,16.50
2018,08,25,14,12,16.50
2018,08,25,14,13,16.40
2018,08,25,14,14,16.40
2018,08,25,14,15,16.40
2018,08,25,14,16,16.40
2018,08,25,14,17,16.40
2018,08,25,14,18,16.40
2018,08,25,14,19,16.40
2018,08,25,14,20,16.40
2018,08,25,14,21,16.40
2018,08,25,14,22,16.40
2018,08,25,14,23,16.40
2018,08,25,14,24,16.50
2018,08,25,14,25,16.50
2018,08,25,14,26,16.50
2018,08,25,14,27,16.50
2018,08,25,14,28,16.60
2018,08,25,14,29,16.60
2018,08,25,14,30,16.60
2018,08,25,14,31,16.60
2018,08,25,14,32,16.60
2018,08,25,14,33,16.60
2018,08,25,14,34,16.60
2018,08,25,14,35,16.60
2018,08,25,14,36,16.60
2018,08,25,14,37,16.60
2018,08,25,14,38,16.60
2018,08,25,14,39,16.60
2018,08,25,14,40,16.60
2018,08,25,14,41,16.60
2018,08,25,14,42,16.60
2018,08,25,14,43,16.60
2018,08,25,14,44,16.60
2018,08,25,14,45,16.60
2018,08,25,14,46,16.60
2018,08,25,14,47,16.60
2018,08,25,14,48,16.60
2018,08,25,14,49,16.50
2018,08,25,14,50,16.50
2018,08,25,14,51,16.50
2018,08,25,14,52,16.50
2018,08,25,14,53,16.40
2018,08,25,14,54,16.40
2018,08,25,14,55,16.40
2018,08,25,14,56,16.40
2018,08,25,14,57,16.40
2018,08,25,14,58,16.40
2018,08,25,14,59,16.40
2018,08,25,15,00,16.40
2018,08,25,15,01,16.40
2018,08,25,15,02,16.40
2018,08,25,15,03,16.40
2018,08,25,15,04,16.40
2018,08,25,15,05,16.40
2018,08,25,15,06,16.40
2018,08,25,15,07,16.40
2018,08,25,15,08,16.50
2018,08,25,15,09,16.50
2018,08,25,15,10,16.50
2018,08,25,15,11,16.50
2018,08,25,15,12,16.50
2018,08,25,15,13,16.50
2018,08,25,15,14,16.50
2018,08,25,15,15,16.60
2018,08,25,15,16,16.60
2018,08,25,15,17,16.60
2018,08,25,15,18,16.60
2018,08,25,15,19,16.60
2018,08,25,15,20,16.60
2018,08,25,15,21,16.60
2018,08,25,15,22,16.70
2018,08,25,15,23,16.70
2018,08,25,15,24,16.70
2018,08,25,15,25,16.70
2018,08,25,15,26,16.70
2018,08,25,15,27,16.80
2018,08,25,15,28,16.80
2018,08,25,15,29,16.80
2018,08,25,15,30,16.80
2018,08,25,15,31,16.80
2018,08,25,15,32,16.80
2018,08,25,15,33,16.80
2018,08,25,15,34,16.80
2018,08,25,15,35,16.80
2018,08,25,15,36,16.80
2018,08,25,15,37,16.80
2018,08,25,15,38,16.80
2018,08,25,15,39,16.80
2018,08,25,15,40,16.80
2018,08,25,15,41,16.80
2018,08,25,15,42,16.80
2018,08,25,15,43,16.80
2018,08,25,15,44,16.80
2018,08,25,15,45,16.80
2018,08,25,15,46,16.80
2018,08,25,15,47,16.80
2018,08,25,15,48,16.80
2018,08,25,15,49,16.80
2018,08,25,15,50,16.80
2018,08,25,15,51,16.80
2018,08,25,15,52,16.80
2018,08,25,15,53,16.80
2018,08,25,15,54,16.80
2018,08,25,15,55,16.80
2018,08,25,15,56,16.80
2018,08,25,15,57,16.80
2018,08,25,15,58,16.80
2018,08,25,15,59,16.80
2018,08,25,16,00,16.90
2018,08,25,16,01,16.90
2018,08,25,16,02,16.90
2018,08,25,16,03,17.00
2018,08,25,16,04,17.00
2018,08,25,16,05,17.00
2018,08,25,16,06,17.00
2018,08,25,16,07,17.00
2018,08,25,16,08,17.00
2018,08,25,16,09,17.00
2018,08,25,16,10,17.00
2018,08,25,16,11,17.10
2018,08,25,16,12,17.10
2018,08,25,16,13,17.10
2018,08,25,16,14,17.10
2018,08,25,16,15,17.10
2018,08,25,16,16,17.10
2018,08,25,16,17,17.20
2018,08,25,16,18,17.20
2018,08,25,16,19,17.20
2018,08,25,16,20,17.20
2018,08,25,16,21,17.20
2018,08,25,16,22,17.20
2018,08,25,16,23,17.20
2018,08,25,16,24,17.20
2018,08,25,16,25,17.10
2018,08,25,16,26,17.10
2018,08,25,16,27,17.20
2018,08,25,16,28,17.20
2018,08,25,16,29,17.20
2018,08,25,16,30,17.20
2018,08,25,16,31,17.20
2018,08,25,16,32,17.20
2018,08,25,16,33,17.20
2018,08,25,16,34,17.20
2018,08,25,16,35,17.20
2018,08,25,16,36,17.20
2018,08,25,16,37,17.20
2018,08,25,16,38,17.20
2018,08,25,16,39,17.20
2018,08,25,16,40,17.20
2018,08,25,16,41,17.20
2018,08,25,16,42,17.30
2018,08,25,16,43,17.30
2018,08,25,16,44,17.30
2018,08,25,16,45,17.30
2018,08,25,16,46,17.30
2018,08,25,16,47,17.30
2018,08,25,16,48,17.30
2018,08,25,16,49,17.20
2018,08,25,16,50,17.20
2018,08,25,16,51,17.20
2018,08,25,16,52,17.20
2018,08,25,16,53,17.20
2018,08,25,16,54,17.20
2018,08,25,16,55,17.20
2018,08,25,16,56,17.20
2018,08,25,16,57,17.20
2018,08,25,16,58,17.20
2018,08,25,16,59,17.20
2018,08,25,17,00,17.20
2018,08,25,17,01,17.20
2018,08,25,17,02,17.20
2018,08,25,17,03,17.20
2018,08,25,17,04,17.20
2018,08,25,17,05,17.20
2018,08,25,17,06,17.20
2018,08,25,17,07,17.20
2018,08,25,17,08,17.20
2018,08,25,17,09,17.30
2018,08,25,17,10,17.30
2018,08,25,17,11,17.30
2018,08,25,17,12,17.30
2018,08,25,17,13,17.30
2018,08,25,17,14,17.30
2018,08,25,17,15,17.30
2018,08,25,17,16,17.30
2018,08,25,17,17,17.30
2018,08,25,17,18,17.30
2018,08,25,17,19,17.30
2018,08,25,17,20,17.30
2018,08,25,17,21,17.30
2018,08,25,17,22,17.30
2018,08,25,17,23,17.30
2018,08,25,17,24,17.30
2018,08,25,17,25,17.30
2018,08,25,17,26,17.20
2018,08,25,17,27,17.20
2018,08,25,17,28,17.20
2018,08,25,17,29,17.20
2018,08,25,17,30,17.10
2018,08,25,17,31,17.10
2018,08,25,17,32,17.10
2018,08,25,17,33,17.10
2018,08,25,17,34,17.10
2018,08,25,17,35,17.00
2018,08,25,17,36,17.00
2018,08,25,17,37,17.00
2018,08,25,17,38,17.00
2018,08,25,17,39,16.90
2018,08,25,17,40,16.90
2018,08,25,17,41,16.90
2018,08,25,17,42,16.90
2018,08,25,17,43,16.90
2018,08,25,17,44,16.90
2018,08,25,17,45,16.90
2018,08,25,17,46,16.90
2018,08,25,17,47,16.90
2018,08,25,17,48,16.90
2018,08,25,17,49,16.80
2018,08,25,17,50,16.80
2018,08,25,17,51,16.80
2018,08,25,17,52,16.80
2018,08,25,17,53,16.80
2018,08,25,17,54,16.80
2018,08,25,17,55,16.80
2018,08,25,17,56,16.70
2018,08,25,17,57,16.70
2018,08,25,17,58,16.70
2018,08,25,17,59,16.70
2018,08,25,18,00,16.70
2018,08,25,18,01,16.70
2018,08,25,18,02,16.60
2018,08,25,18,03,16.60
2018,08,25,18,04,16.60
2018,08,25,18,05,16.60
2018,08,25,18,06,16.50
2018,08,25,18,07,16.50
2018,08,25,18,08,16.40
2018,08,25,18,09,16.40
2018,08,25,18,10,16.40
2018,08,25,18,11,16.40
2018,08,25,18,12,16.30
2018,08,25,18,13,16.30
2018,08,25,18,14,16.30
2018,08,25,18,15,16.30
2018,08,25,18,16,16.20
2018,08,25,18,17,16.20
2018,08,25,18,18,16.20
2018,08,25,18,19,16.20
2018,08,25,18,20,16.10
2018,08,25,18,21,16.10
2018,08,25,18,22,16.10
2018,08,25,18,23,16.10
2018,08,25,18,24,16.10
2018,08,25,18,25,16.10
2018,08,25,18,26,16.10
2018,08,25,18,27,16.10
2018,08,25,18,28,16.00
2018,08,25,18,29,16.00
2018,08,25,18,30,16.00
2018,08,25,18,31,16.00
2018,08,25,18,32,16.00
2018,08,25,18,33,16.00
2018,08,25,18,34,16.00
2018,08,25,18,35,15.90
2018,08,25,18,36,15.90
2018,08,25,18,37,15.90
2018,08,25,18,38,15.90
2018,08,25,18,39,15.90
2018,08,25,18,40,15.90
2018,08,25,18,41,15.90
2018,08,25,18,42,15.90
2018,08,25,18,43,15.90
2018,08,25,18,44,15.80
2018,08,25,18,45,15.80
2018,08,25,18,46,15.80
2018,08,25,18,47,15.80
2018,08,25,18,48,15.80
2018,08,25,18,49,15.80
2018,08,25,18,50,15.80
2018,08,25,18,51,15.70
2018,08,25,18,52,15.70
2018,08,25,18,53,15.70
2018,08,25,18,54,15.70
2018,08,25,18,55,15.70
2018,08,25,18,56,15.70
2018,08,25,18,57,15.70
2018,08,25,18,58,15.60
2018,08,25,18,59,15.60
2018,08,25,19,00,15.60
2018,08,25,19,01,15.60
2018,08,25,19,02,15.60
2018,08,25,19,03,15.60
2018,08,25,19,04,15.60
2018,08,25,19,05,15.60
2018,08,25,19,06,15.60
2018,08,25,19,07,15.50
2018,08,25,19,08,15.50
2018,08,25,19,09,15.50
2018,08,25,19,10,15.50
2018,08,25,19,11,15.50
2018,08,25,19,12,15.50
2018,08,25,19,13,15.50
2018,08,25,19,14,15.50
2018,08,25,19,15,15.50
2018,08,25,19,16,15.50
2018,08,25,19,17,15.40
2018,08,25,19,18,15.40
2018,08,25,19,19,15.40
2018,08,25,19,20,15.40
2018,08,25,19,21,15.40
2018,08,25,19,22,15.40
2018,08,25,19,23,15.40
2018,08,25,19,24,15.40
2018,08,25,19,25,15.40
2018,08,25,19,26,15.30
2018,08,25,19,27,15.30
2018,08,25,19,28,15.30
2018,08,25,19,29,15.30
2018,08,25,19,30,15.30
2018,08,25,19,31,15.30
2018,08,25,19,32,15.30
2018,08,25,19,33,15.30
2018,08,25,19,34,15.30
2018,08,25,19,35,15.30
2018,08,25,19,36,15.30
2018,08,25,19,37,15.30
2018,08,25,19,38,15.30
2018,08,25,19,39,15.30
2018,08,25,19,40,15.30
2018,08,25,19,41,15.30
2018,08,25,19,42,15.30
2018,08,25,19,43,15.30
2018,08,25,19,44,15.30
2018,08,25,19,45,15.30
2018,08,25,19,46,15.30
2018,08,25,19,47,15.30
2018,08,25,19,48,15.30
2018,08,25,19,49,15.30
2018,08,25,19,50,15.30
2018,08,25,19,51,15.30
2018,08,25,19,52,15.30
2018,08,25,19,53,15.30
2018,08,25,19,54,15.30
2018,08,25,19,55,15.30
2018,08,25,19,56,15.30
2018,08,25,19,57,15.30
2018,08,25,19,58,15.30
2018,08,25,19,59,15.30
2018,08,25,20,00,15.30
2018,08,25,20,01,15.30
2018,08,25,20,02,15.30
2018,08,25,20,03,15.30
2018,08,25,20,04,15.30
2018,08,25,20,05,15.30
2018,08,25,20,06,15.30
2018,08,25,20,07,15.30
2018,08,25,20,08,15.30
2018,08,25,20,09,15.30
2018,08,25,20,10,15.30
2018,08,25,20,11,15.30
2018,08,25,20,12,15.30
2018,08,25,20,13,15.30
2018,08,25,20,14,15.30
2018,08,25,20,15,15.30
2018,08,25,20,16,15.30
2018,08,25,20,17,15.30
2018,08,25,20,18,15.30
2018,08,25,20,19,15.30
2018,08,25,20,20,15.30
2018,08,25,20,21,15.30
2018,08,25,20,22,15.30
2018,08,25,20,23,15.30
2018,08,25,20,24,15.30
2018,08,25,20,25,15.30
2018,08,25,20,26,15.30
2018,08,25,20,27,15.30
2018,08,25,20,28,15.30
2018,08,25,20,29,15.30
2018,08,25,20,30,15.30
2018,08,25,20,31,15.30
2018,08,25,20,32,15.30
2018,08,25,20,33,15.20
2018,08,25,20,34,15.20
2018,08,25,20,35,15.20
2018,08,25,20,36,15.20
2018,08,25,20,37,15.20
2018,08,25,20,38,15.20
2018,08,25,20,39,15.20
2018,08,25,20,40,15.20
2018,08,25,20,41,15.20
2018,08,25,20,42,15.20
2018,08,25,20,43,15.20
2018,08,25,20,44,15.20
2018,08,25,20,45,15.20
2018,08,25,20,46,15.20
2018,08,25,20,47,15.20
2018,08,25,20,48,15.20
2018,08,25,20,49,15.10
2018,08,25,20,50,15.10
2018,08,25,20,51,15.10
2018,08,25,20,52,15.10
2018,08,25,20,53,15.10
2018,08,25,20,54,15.00
2018,08,25,20,55,15.00
2018,08,25,20,56,15.00
2018,08,25,20,57,14.90
2018,08,25,20,58,14.90
2018,08,25,20,59,14.80
2018,08,25,21,00,14.80
2018,08,25,21,01,14.80
2018,08,25,21,02,14.80
2018,08,25,21,03,14.80
2018,08,25,21,04,14.80
2018,08,25,21,05,14.80
2018,08,25,21,06,14.80
2018,08,25,21,07,14.70
2018,08,25,21,08,14.70
2018,08,25,21,09,14.70
2018,08,25,21,10,14.70
2018,08,25,21,11,14.70
2018,08,25,21,12,14.70
2018,08,25,21,13,14.70
2018,08,25,21,14,14.70
2018,08,25,21,15,14.70
2018,08,25,21,16,14.70
2018,08,25,21,17,14.70
2018,08,25,21,18,14.70
2018,08,25,21,19,14.70
2018,08,25,21,20,14.70
2018,08,25,21,21,14.70
2018,08,25,21,22,14.70
2018,08,25,21,23,14.70
2018,08,25,21,24,14.70
2018,08,25,21,25,14.70
2018,08,25,21,26,14.70
2018,08,25,21,27,14.70
2018,08,25,21,28,14.70
2018,08,25,21,29,14.70
2018,08,25,21,30,14.70
2018,08,25,21,31,14.70
2018,08,25,21,32,14.70
2018,08,25,21,33,14.70
2018,08,25,21,34,14.70
2018,08,25,21,35,14.60
2018,08,25,21,36,14.60
2018,08,25,21,37,14.60
2018,08,25,21,38,14.60
2018,08,25,21,39,14.60
2018,08,25,21,40,14.60
2018,08,25,21,41,14.50
2018,08,25,21,42,14.50
2018,08,25,21,43,14.40
2018,08,25,21,44,14.40
2018,08,25,21,45,14.40
2018,08,25,21,46,14.40
2018,08,25,21,47,14.30
2018,08,25,21,48,14.30
2018,08,25,21,49,14.30
2018,08,25,21,50,14.30
2018,08,25,21,51,14.30
2018,08,25,21,52,14.30
2018,08,25,21,53,14.30
2018,08,25,21,54,14.30
2018,08,25,21,55,14.30
2018,08,25,21,56,14.20
2018,08,25,21,57,14.20
2018,08,25,21,58,14.20
2018,08,25,21,59,14.20
2018,08,25,22,00,14.20
2018,08,25,22,01,14.20
2018,08,25,22,02,14.20
2018,08,25,22,03,14.10
2018,08,25,22,04,14.10
2018,08,25,22,05,14.10
2018,08,25,22,06,14.10
2018,08,25,22,07,14.10
2018,08,25,22,08,14.00
2018,08,25,22,09,14.00
2018,08,25,22,10,14.00
2018,08,25,22,11,14.00
2018,08,25,22,12,14.00
2018,08,25,22,13,14.00
2018,08,25,22,14,14.00
2018,08,25,22,15,13.90
2018,08,25,22,16,13.90
2018,08,25,22,17,13.90
2018,08,25,22,18,13.90
2018,08,25,22,19,13.90
2018,08,25,22,20,13.90
2018,08,25,22,21,13.90
2018,08,25,22,22,13.90
2018,08,25,22,23,13.90
2018,08,25,22,24,13.90
2018,08,25,22,25,13.90
2018,08,25,22,26,13.90
2018,08,25,22,27,13.90
2018,08,25,22,28,13.90
2018,08,25,22,29,13.90
2018,08,25,22,30,13.80
2018,08,25,22,31,13.80
2018,08,25,22,32,13.80
2018,08,25,22,33,13.80
2018,08,25,22,34,13.80
2018,08,25,22,35,13.80
2018,08,25,22,36,13.80
2018,08,25,22,37,13.80
2018,08,25,22,38,13.80
2018,08,25,22,39,13.80
2018,08,25,22,40,13.80
2018,08,25,22,41,13.80
2018,08,25,22,42,13.80
2018,08,25,22,43,13.80
2018,08,25,22,44,13.80
2018,08,25,22,45,13.80
2018,08,25,22,46,13.80
2018,08,25,22,47,13.80
2018,08,25,22,48,13.70
2018,08,25,22,49,13.70
2018,08,25,22,50,13.70
2018,08,25,22,51,13.70
2018,08,25,22,52,13.70
2018,08,25,22,53,13.70
2018,08,25,22,54,13.70
2018,08,25,22,55,13.70
2018,08,25,22,56,13.70
2018,08,25,22,57,13.70
2018,08,25,22,58,13.70
2018,08,25,22,59,13.70
2018,08,25,23,00,13.70
2018,08,25,23,01,13.70
2018,08,25,23,02,13.70
2018,08,25,23,03,13.70
2018,08,25,23,04,13.70
2018,08,25,23,05,13.70
2018,08,25,23,06,13.70
2018,08,25,23,07,13.70
2018,08,25,23,08,13.70
2018,08,25,23,09,13.70
2018,08,25,23,10,13.70
2018,08,25,23,11,13.70
2018,08,25,23,12,13.70
2018,08,25,23,13,13.70
2018,08,25,23,14,13.70
2018,08,25,23,15,13.70
2018,08,25,23,16,13.70
2018,08,25,23,17,13.70
2018,08,25,23,18,13.70
2018,08,25,23,19,13.70
2018,08,25,23,20,13.70
2018,08,25,23,21,13.70
2018,08,25,23,22,13.80
2018,08,25,23,23,13.80
2018,08,25,23,24,13.80
2018,08,25,23,25,13.80
2018,08,25,23,26,13.80
2018,08,25,23,27,13.80
2018,08,25,23,28,13.80
2018,08,25,23,29,13.80
2018,08,25,23,30,13.80
2018,08,25,23,31,13.80
2018,08,25,23,32,13.80
2018,08,25,23,33,13.80
2018,08,25,23,34,13.80
2018,08,25,23,35,13.80
2018,08,25,23,36,13.80
2018,08,25,23,37,13.80
2018,08,25,23,38,13.80
2018,08,25,23,39,13.80
2018,08,25,23,40,13.80
2018,08,25,23,41,13.80
2018,08,25,23,42,13.80
2018,08,25,23,43,13.90
2018,08,25,23,44,13.90
2018,08,25,23,45,13.90
2018,08,25,23,46,13.90
2018,08,25,23,47,13.90
2018,08,25,23,48,13.90
2018,08,25,23,49,13.90
2018,08,25,23,50,13.90
2018,08,25,23,51,13.90
2018,08,25,23,52,13.90
2018,08,25,23,53,13.90
2018,08,25,23,54,13.90
2018,08,25,23,55,13.90
2018,08,25,23,56,13.90
2018,08,25,23,57,13.90
2018,08,25,23,58,13.90
2018,08,25,23,59,13.90
